Location: Columbia, SC
(34.0000°N, 81.0300°W)
Time: 08:40:36
(UTC-04:00)

Tiangong 1 - Visible Passes

Search period start: 28 August 2015 00:00
Search period end: 07 September 2015 00:00
Orbit: 367 x 385 km, 42.8° (Epoch: 28 August)

Date Brightness Start Highest point End Pass type
(mag) Time Alt. Az. Time Alt. Az. Time Alt. Az.
28 Aug 3.5 21:07:41 10° WNW 21:10:05 20° NNW 21:12:27 10° NE visible
29 Aug 3.6 21:42:47 10° NW 21:44:49 16° N 21:45:10 16° N visible
30 Aug 3.6 20:40:04 10° NW 20:42:15 17° N 20:44:25 10° NE visible
30 Aug 4.4 22:17:10 10° NW 22:17:41 13° NNW 22:17:41 13° NNW visible
31 Aug 3.4 21:14:49 10° NW 21:16:56 17° N 21:18:06 14° NNE visible
01 Sep 3.4 21:48:53 10° NW 21:50:29 20° NNW 21:50:29 20° NNW visible
02 Sep 3.2 20:46:34 10° NW 20:48:51 19° N 20:50:49 12° NE visible
02 Sep 4.7 22:22:44 10° NW 22:22:51 11° NW 22:22:51 11° NW visible
03 Sep 2.3 21:20:24 10° NW 21:23:10 32° NNE 21:23:10 32° NNE visible
04 Sep 2.9 20:18:03 10° NW 20:20:36 22° NNE 20:23:09 10° ENE visible
04 Sep 3.7 21:54:16 10° WNW 21:55:30 21° WNW 21:55:30 21° WNW visible
05 Sep 1.5 20:51:46 10° NW 20:54:50 49° NNE 20:55:49 34° ENE visible
06 Sep 2.2 21:25:44 10° WNW 21:28:12 38° WSW 21:28:12 38° WSW visible
